Miscellaneous Local Product
Issued by NWS Hastings, NE

Home | Current Version | Previous Version | Graphics & Text | Print | Product List | Glossary On
Versions: 1 2 3 4 5 6 7 8 9 10 11 12 13 14 15 16 17 18 19 20 21 22 23 24 25 26 27 28 29 30 31 32 33 34 35 36 37 38 39 40 41 42 43 44 45 46 47 48 49 50
398
AXUS43 KGID 101202
MISGRI

GID CWA HOURLY WEATHER ROUNDUP
NATIONAL WEATHER SERVICE HASTINGS NE
600 AM CST WED FEB 10 2016

NOTE: "FAIR" INDICATES FEW OR NO CLOUDS BELOW 12,000 FEET WITH NO
SIGNIFICANT WEATHER AND/OR OBSTRUCTIONS TO VISIBILITY.

...SOUTH CENTRAL NEBRASKA...

CITY           SKY/WX    TMP DP  RH WIND       PRES   REMARKS
GRAND ISLAND   CLEAR     22  19  89 S9        29.96F WCI  12
HASTINGS       CLEAR     26  21  81 SW8       29.96F WCI  18
ORD            CLOUDY    20  17  88 SW3       29.91F
YORK           CLOUDY    25  21  86 S10       29.98F WCI  15
AURORA         CLEAR     25  21  84 S7        29.97F WCI  18
LEXINGTON      CLOUDY    21  19  91 W8        29.98S WCI  12
HOLDREGE       CLOUDY    30  25  80 W12       29.98F WCI  21
HEBRON         CLEAR     25  19  77 S5        30.03F WCI  19

...NEBRASKA PANHANDLE...

CITY           SKY/WX    TMP DP  RH WIND       PRES   REMARKS
CHADRON        CLOUDY    38  24  57 SW3       29.99F
ALLIANCE       CLOUDY    31  23  72 W9        30.00F WCI  23
SCOTTSBLUFF    CLOUDY    31  25  78 NW9       30.04F WCI  23
SIDNEY         CLOUDY    32  22  66 W13       30.07S WCI  22

...WESTERN AND NORTH CENTRAL NEBRASKA...

CITY           SKY/WX    TMP DP  RH WIND       PRES   REMARKS
VALENTINE      CLEAR     31  27  85 SW9       29.89F WCI  23
AINSWORTH      CLEAR     33  28  83 W7        29.89F WCI  27
ONEILL         CLOUDY    28  25  90 SE6       29.90F WCI  21
BROKEN BOW     CLEAR     32  26  78 W9        29.92F WCI  24
IMPERIAL       CLOUDY    36  23  59 W17       30.03F WCI  26
NORTH PLATTE   CLEAR     25  21  85 W8        29.98F WCI  16
MCCOOK         CLOUDY    28  23  81 W12       30.03F WCI  18

...EASTERN NEBRASKA...

CITY           SKY/WX    TMP DP  RH WIND       PRES   REMARKS
NORFOLK        CLOUDY    25  20  81 SE7       29.94F WCI  17
SO SIOUX CITY  CLOUDY    22  16  78 SE12      30.02F WCI  10
TEKAMAH        CLOUDY   N/A N/A N/A SE9       30.04F
COLUMBUS       CLOUDY    27  14  59 S6        29.99F WCI  20
ALBION         CLEAR     24  21  87 S6        29.94F WCI  17
OMAHA EPPLEY   FLURRIES  24  18  77 SE10      30.07F WCI  14
OFFUTT AFB     CLOUDY    24  19  79 S7        30.06F WCI  16
MILLARD        CLOUDY    25  19  75 CALM      30.07F
LINCOLN        CLOUDY    28  18  66 S9        30.05F WCI  19
NEBRASKA CITY  CLOUDY    25  20  82 S7        30.08F WCI  17
BEATRICE       CLOUDY    28  15  58 S14       30.04F WCI  17
FALLS CITY     CLOUDY    25  18  74 S6        30.11F WCI  18

...NORTHERN KANSAS...

CITY           SKY/WX    TMP DP  RH WIND       PRES   REMARKS
GOODLAND       CLOUDY    35  21  56 W15       30.09F WCI  25
HILL CITY      CLEAR     33  25  72 SW8       30.04F WCI  26
NORTON         SUNNY     30  21  69 W10       30.01S WCI  21
PHILLIPSBURG   CLOUDY    23  23 100 CALM      30.03S
SMITH CENTER   CLEAR     23  21  93 CALM      30.03F
BELOIT         CLEAR     25  19  80 S7        30.05F WCI  17
HAYS           CLEAR     30  18  59 W8        30.06S WCI  23
RUSSELL        CLEAR     28  25  88 SW10      30.04F WCI  19
CONCORDIA      CLEAR     26  17  68 S18       30.02F WCI  13
SALINA         CLEAR     29  18  63 S10       30.11F WCI  20
TOPEKA         CLOUDY    28  13  53 SW7       30.16F WCI  21



USA.gov is the U.S. government's official web portal to all federal, state and local government web resources and services.